Regional Weather Roundup
Issued by NWS Jackson, KY

Home | Current Version | Previous Version | Text Only | Print | Product List | Glossary On
Versions: 1 2 3 4 5 6 7 8 9 10 11 12 13 14 15 16 17 18 19 20 21 22 23 24 25 26 27 28 29 30 31 32 33 34 35 36 37 38 39 40 41 42 43 44 45 46 47 48 49 50
000
ASUS43 KJKL 281610
RWRJKL

EAST KENTUCKY HOURLY WEATHER ROUNDUP
NATIONAL WEATHER SERVICE JACKSON KY
1200 PM EDT THU JUL 28 2016

NOTE: "FAIR" INDICATES FEW OR NO CLOUDS BELOW 12,000 FEET WITH
NO SIGNIFICANT WEATHER AND/OR OBSTRUCTIONS TO VISIBILITY.

* THESE REPORTS ARE NOT UNDER NWS QUALITY CONTROL AND MAY NOT
  REPORT WEATHER SUCH AS PRECIPITATION AND FOG.

KYZ079-080-083-085-087-088-110-112-115-119-120-281700
...EASTERN KENTUCKY...

CITY           SKY/WX    TMP DP  RH WIND       PRES   REMARKS
JACKSON        CLOUDY    79  72  79 VRB3      29.95S
LONDON         HVY RAIN  76  70  82 W14       29.96S
SOMERSET*      RAIN      70  70 100 N3        29.97R
MONTICELLO*    CLOUDY   N/A N/A N/A N14G23    29.97R
WILLIAMSBURG*  PTSUNNY   79  75  89 SW9G18    29.96S
MIDDLESBORO*   CLOUDY    80  71  75 S9        29.97S
HARLAN APT*    CLOUDY    79  70  73 SW5       29.98F
PIKE CO APT*   CLOUDY    77  74  89 CALM      29.97S
BIG SANDY APT* CLOUDY    80  73  78 SW3       29.95F
MOREHEAD APT*  RAIN      70  68  94 CALM      29.97F
ASHLAND*       CLOUDY    72  70  94 S3        29.92S VSB 1
$$

KYZ035-036-041-042-044-050-067-078-099-281700
...CENTRAL KENTUCKY...

CITY           SKY/WX    TMP DP  RH WIND       PRES   REMARKS
MT STERLING*   RAIN      70  70 100 CALM      29.95F
FLEMING/MASON* RAIN      71  70  98 CALM      29.95F
DANVILLE*      LGT RAIN  72  70  94 W5        29.96R
LEXINGTON      CLOUDY    74  71  91 W6        29.94R
FRANKFORT      CLOUDY    74  70  87 SW8       29.93R
LOUISVILLE     CLOUDY    78  71  79 W8        29.92S
LEBANON*       CLOUDY    73  72  94 CALM      29.96R
GLASGOW*       CLOUDY    73  73 100 CALM      29.95R
BOWLING GREEN  RAIN      74  72  93 NE5       29.94S FOG
$$

KYZ091>093-OHZ055-061-077-WVZ005-015-034-035-042-281700
...SOUTHERN OHIO/WEST VIRGINIA...

CITY           SKY/WX    TMP DP  RH WIND       PRES   REMARKS
COVINGTON      CLOUDY    73  71  93 S3        29.93S
COLUMBUS       CLOUDY    77  70  79 VRB3      29.91R
DAYTON         CLOUDY    76  70  82 SW8       29.94S
WILMINGTON     LGT RAIN  73  70  90 W5        29.94R
HUNTINGTON     LGT RAIN  74  71  91 E5        29.93F FOG
CHARLESTON     CLOUDY    75  71  87 CALM      29.95S
PINEVILLE*     CLOUDY    80  69  70 MISG      30.03F
BECKLEY        CLOUDY    75  68  78 SW7       30.03F
BLUEFIELD      PTSUNNY   76  66  71 SW7       30.06F
LOGAN CO APT*    N/A     79  72  78 CALM      29.96F
$$

VAZ002-007-008-TNZ017-027-036-066-071-281700
...SOUTHWEST VIRGINIA/EAST TENNESSEE...

CITY           SKY/WX    TMP DP  RH WIND       PRES   REMARKS
WISE*          CLOUDY    77  68  73 SW12      30.06S
JONESVILLE*      N/A     79  72  78 S5        30.01S
ABINGDON*      CLOUDY    80  72  78 SW6       30.03F
BRISTOL        CLOUDY    81  70  69 S6        29.99F
MORRISTOWN*    CLOUDY    84  68  58 W14       29.97F
SEVIERVILLE*   CLOUDY    84  68  58 W9        29.96F
KNOXVILLE      PTSUNNY   84  68  58 SW22G30   29.97F
OAK RIDGE      PTSUNNY   85  70  60 VRB5      29.98S
CROSSVILLE     CLOUDY    78  68  71 VRB5      30.01F
NASHVILLE      LGT RAIN  76  74  93 S5        29.93S FOG
$$

...KEY TO REMARKS...
VSB - VISIBILITY IN MILES
WCI - WIND CHILL INDEX
HX  - HEAT INDEX

$$



USA.gov is the U.S. government's official web portal to all federal, state and local government web resources and services.